Tracking 19717 objects as of 25-Jun-2019
HD Live streaming from Space Station
objects crossing your sky now

LEMUR 2 JOBANPUTRA

Track LEMUR 2 JOBANPUTRA now!
10-day predictions
LEMUR 2 JOBANPUTRA is classified as:


NORAD ID: 41997
Int'l Code: 2017-008BB
Perigee: 490.5 km
Apogee: 503.8 km
Inclination: 97.4 °
Period: 94.4 minutes
Semi major axis: 6868 km
RCS: Unknown
Launch date: February 15, 2017
Source: United States (US)
Launch site: SRIHARIKOTA (SRI)
aabbcc
Your satellite tracking list
Your tracking list is empty




NASA's NSSDC Master Catalog

Two Line Element Set (TLE):
1 41997U 17008BB  19175.62902770 +.00001079 +00000-0 +45723-4 0  9994
2 41997 097.4047 242.3353 0009695 132.1915 228.0148 15.25257189130167
Source of the keplerian elements: AFSPC